Trinidad, CO

2:22 AM MDT on August 24, 2019 (GMT -0600)
Stokes

Weather History for KTAD - July, 2019

Change the Weather History Date:

Monday, July 15, 2019

  Actual Average Record
Temperature  
Mean Temperature 81 °F 74 °F  
Max Temperature 97 °F 89 °F 97 °F (1951)
Min Temperature 64 °F 59 °F 50 °F (1990)
Degree Days  
Heating Degree Days 0 0  
Month to date heating degree days 0 0  
Since 1 June heating degree days 27 39  
Since 1 July heating degree days 0 0  
Cooling Degree Days 16 9  
Month to date cooling degree days 146 129  
Year to date cooling degree days 286 298  
Since 1 June cooling degree days 281 270  
Growing Degree Days 30 (Base 50)    
Moisture  
Dew Point 51 °F    
Average Humidity 42    
Maximum Humidity 67    
Minimum Humidity 16    
Precipitation  
Precipitation T in 0.08 in 0.53 in (1985)
Month to date precipitation 0.36 0.95  
Sea Level Pressure  
Sea Level Pressure 29.89 in    
Wind  
Wind Speed 10 mph (West)    
Max Wind Speed 22 mph    
Max Gust Speed 30 mph    
Visibility 10 miles    
Events Rain , Thunderstorm    
T = Trace of Precipitation, MM = Missing Value Source: NWS Daily Summary

Daily Weather History Graph

Daily Weather History Graph

Search for Another Location

Airport or City:

Astronomy

Jul. 15, 2019 Rise Set
Actual Time 5:48 AM MDT 8:17 PM MDT
Civil Twilight 5:18 AM MDT 8:47 PM MDT
Nautical Twilight 4:41 AM MDT 9:24 PM MDT
Astronomical Twilight 3:59 AM MDT 10:06 PM MDT
Moon 7:36 PM MDT (7/15) 4:38 AM MDT (7/15)
Length of Visible Light 15h 29m
Length of Day
14h 28m
Waxing Gibbous, 99% of the Moon is Illuminated
Jul 15
Waxing Gibbous
Jul 16
Full
Jul 24
Last Quarter
Jul 31
New
Aug 7
First Quarter

Hourly Weather History & Observations

Time (MDT) Temp. Heat Index Dew Point Humidity Pressure Visibility Wind Dir Wind Speed Gust Speed Precip Events Conditions
12:54 AM 64.0 °F - 53.1 °F 67% 29.99 in 10.0 mi West 6.9 mph - N/A   Scattered Clouds
1:54 AM 66.0 °F - 53.1 °F 63% 29.95 in 10.0 mi West 15.0 mph - N/A   Clear
2:54 AM 68.0 °F - 52.0 °F 56% 29.91 in 10.0 mi West 16.1 mph - N/A   Clear
3:54 AM 69.1 °F - 51.1 °F 53% 29.88 in 10.0 mi WSW 20.7 mph - N/A   Clear
4:54 AM 66.0 °F - 50.0 °F 56% 29.91 in 10.0 mi NW 12.7 mph - N/A   Clear
5:54 AM 66.9 °F - 50.0 °F 54% 29.92 in 10.0 mi WNW 11.5 mph - N/A   Clear
6:54 AM 64.9 °F - 51.1 °F 61% 29.91 in 10.0 mi West 10.4 mph - N/A   Clear
7:54 AM 72.0 °F - 51.1 °F 48% 29.91 in 10.0 mi SW 12.7 mph - N/A   Clear
8:54 AM 78.1 °F - 48.9 °F 36% 29.91 in 10.0 mi WSW 6.9 mph - N/A   Clear
9:54 AM 82.9 °F - 48.9 °F 31% 29.90 in 10.0 mi Variable 4.6 mph - N/A   Clear
10:54 AM 87.1 °F - 46.0 °F 24% 29.87 in 10.0 mi Variable 3.5 mph - N/A   Clear
11:54 AM 90.0 °F - 46.0 °F 22% 29.86 in 10.0 mi ENE 5.8 mph - N/A   Clear
12:54 PM 91.0 °F - 45.0 °F 20% 29.85 in 10.0 mi Variable 4.6 mph - N/A   Clear
1:54 PM 95.0 °F - 43.0 °F 17% 29.81 in 10.0 mi ENE 8.1 mph - N/A   Clear
2:54 PM 96.1 °F - 45.0 °F 17% 29.78 in 10.0 mi NNE 8.1 mph 20.7 mph N/A   Clear
3:54 PM 93.0 °F - 45.0 °F 19% 29.77 in 10.0 mi NE 9.2 mph - N/A   Partly Cloudy
4:54 PM 90.0 °F - 45.0 °F 21% 29.78 in 10.0 mi Calm Calm - N/A   Partly Cloudy
5:23 PM 82.0 °F - 51.1 °F 34% 30.08 in 10.0 mi SW 15.0 mph 29.9 mph N/A Thunderstorm Mostly Cloudy
5:44 PM 75.9 °F - 57.9 °F 54% 30.08 in 10.0 mi West 16.1 mph - 0.00 in Rain Light Rain
5:54 PM 72.0 °F - 61.0 °F 68% 29.84 in 10.0 mi West 17.3 mph - 0.00 in Rain , Thunderstorm Light Rain
6:17 PM 79.0 °F - 55.9 °F 45% 30.07 in 10.0 mi SSW 15.0 mph - 0.00 in   Scattered Clouds
6:54 PM 82.9 °F 82.0 °F 55.0 °F 38% 29.81 in 10.0 mi WSW 9.2 mph - 0.00 in   Scattered Clouds
7:54 PM 77.0 °F - 55.9 °F 48% 29.82 in 10.0 mi West 8.1 mph - N/A   Scattered Clouds
8:54 PM 75.9 °F - 53.1 °F 45% 29.82 in 10.0 mi West 13.8 mph 24.2 mph 0.00 in   Scattered Clouds
9:54 PM 73.9 °F - 51.1 °F 45% 29.87 in 10.0 mi NNW 9.2 mph - N/A   Clear
10:54 PM 69.1 °F - 53.1 °F 57% 29.90 in 10.0 mi WNW 9.2 mph - N/A   Clear
11:54 PM 70.0 °F - 52.0 °F 53% 29.88 in 10.0 mi West 5.8 mph - N/A   Clear